Volver al catálogo

STARLINK-30955

ActivoComunicacionesVLEO
NORAD 58417·PAYLOAD·🇺🇸 United States

Lanzado Nov 22, 2023 desde Cape Canaveral Space Force Station

Loading…

Próximos Pases (próximas 24 horas)

TLE

ActualizadoSource: CelesTrak SupGP

Época: Sep 14, 2026, 22:27 UTC

1 58417C 23180R   26257.93590278  .00062834  00000+0  22764-2 0  2576
2 58417  43.0023  63.3614 0001589 277.1242  79.8321 15.27538812    13

Sigue STARLINK-30955 en tiempo real con AllMySat

Download on the App Store